Location: Jackson Park
(37.2862°N, 79.9123°W)
Time: 00:46:22
(UTC+00:00)

Courier 1B - All Passes

Search period start: 14 May 2026 00:00
Search period end: 24 May 2026 00:00
Orbit: 962 x 1209 km, 28.3° (Epoch: 13 May)

Date Brightness Start Highest point End Pass type
(mag) Time Alt. Az. Time Alt. Az. Time Alt. Az.
14 May - 12:45:41 10° SSW 12:50:12 17° SSE 12:54:52 10° ESE daylight
14 May - 14:36:53 10° SW 14:43:33 35° SSE 14:50:28 10° ESE daylight
14 May - 16:30:06 10° WSW 16:37:18 44° S 16:44:39 10° ESE daylight
14 May - 18:24:14 10° WSW 18:31:04 34° SSW 18:37:53 10° SE daylight
14 May - 20:20:07 10° WSW 20:24:29 16° SSW 20:28:48 10° S daylight
15 May - 11:53:36 10° S 11:56:30 13° SSE 11:59:26 10° SE daylight
15 May - 13:43:26 10° SW 13:49:41 30° SSE 13:56:13 10° ESE daylight
15 May - 15:36:16 10° WSW 15:43:21 43° S 15:50:39 10° ESE daylight
15 May - 17:30:08 10° WSW 17:37:08 38° SSW 17:44:13 10° SE daylight
15 May - 19:25:13 10° WSW 19:30:41 21° SSW 19:36:06 10° SSE daylight
16 May - 12:50:12 10° SSW 12:55:53 25° SSE 13:01:50 10° ESE daylight
16 May - 14:42:33 10° WSW 14:49:24 41° S 14:56:35 10° ESE daylight
16 May - 16:36:09 10° WSW 16:43:12 41° S 16:50:25 10° ESE daylight
16 May - 18:30:43 10° WSW 18:36:50 25° SSW 18:42:58 10° SSE daylight
17 May - 11:57:14 10° SSW 12:02:09 20° SSE 12:07:15 10° ESE daylight
17 May - 13:48:55 10° SW 13:55:31 37° S 14:02:26 10° ESE daylight
17 May - 15:42:15 10° WSW 15:49:15 42° S 15:56:31 10° ESE daylight
17 May - 17:36:27 10° WSW 17:42:57 30° SSW 17:49:32 10° SE daylight
17 May - 19:33:11 10° SW 19:36:19 13° SSW 19:39:28 10° S daylight
18 May - 11:04:43 10° S 11:08:28 15° SSE 11:12:19 10° ESE daylight
18 May - 12:55:27 10° SW 13:01:40 33° SSE 13:08:14 10° ESE daylight
18 May - 14:48:26 10° WSW 14:55:19 43° S 15:02:31 10° ESE daylight
18 May - 16:42:21 10° WSW 16:49:03 34° SSW 16:55:56 10° SE daylight
18 May - 18:37:51 10° WSW 18:42:32 17° SSW 18:47:15 10° S daylight
19 May - 10:13:32 10° SSE 10:14:50 11° SSE 10:16:08 10° SE daylight
19 May - 12:02:08 10° SW 12:07:54 28° SSE 12:13:56 10° ESE daylight
19 May - 13:54:43 10° WSW 14:01:25 42° S 14:08:28 10° ESE daylight
19 May - 15:48:23 10° WSW 15:55:09 38° S 16:02:10 10° SE daylight
19 May - 17:43:11 10° WSW 17:48:42 21° SSW 17:54:18 10° SSE daylight
20 May - 11:09:02 10° SSW 11:14:10 23° SSE 11:19:32 10° ESE daylight
20 May - 13:01:07 10° WSW 13:07:33 39° S 13:14:22 10° ESE daylight
20 May - 14:54:30 10° WSW 15:01:14 40° S 15:08:18 10° ESE daylight
20 May - 16:48:51 10° WSW 16:54:51 26° SSW 17:01:02 10° SSE daylight
21 May - 10:16:13 10° SSW 10:20:30 18° SSE 10:24:55 10° ESE daylight
21 May - 12:07:36 10° SW 12:13:44 35° SSE 12:20:14 10° ESE daylight
21 May - 14:00:43 10° WSW 14:07:20 41° S 14:14:20 10° ESE daylight
21 May - 15:54:43 10° WSW 16:00:59 30° SSW 16:07:30 10° SE daylight
21 May - 17:50:58 10° SW 17:54:24 13° SSW 17:57:52 10° S daylight
22 May - 09:24:00 10° S 09:26:53 13° SSE 09:29:49 10° SE visible
22 May - 11:14:13 10° SW 11:19:58 30° SSE 11:26:02 10° ESE daylight
22 May - 13:07:01 10° WSW 13:13:29 41° S 13:20:20 10° ESE daylight
22 May - 15:00:45 10° WSW 15:07:07 34° SSW 15:13:49 10° SE daylight
22 May - 16:55:56 10° WSW 17:00:36 17° SSW 17:05:22 10° SSE daylight
23 May - 10:20:59 10° SW 10:26:16 25° SSE 10:31:47 10° ESE daylight
23 May - 12:13:23 10° WSW 12:19:39 40° S 12:26:18 10° ESE daylight
23 May - 14:06:53 10° WSW 14:13:16 37° S 14:20:01 10° SE daylight
23 May - 16:01:27 10° WSW 16:06:47 22° SSW 16:12:18 10° SSE daylight
